RH
36 32 28 25 25 27 27 28 26 26 28 31 32 33 34 35 34 34 34 33 30 27 25 22 22 23 23 25 26 27 29 32 33 31 32 33 34 34 35 34 33 36 41 45 47 47 48 47 46 45 45 45 44 43 45 46 47 48 50 51 51 51 52 50 47 45 44 44 40 34 29 26 22 22 24 23 23 26 24 17 16 16 16 16 15
34 31 28 25 25 27 27 28 27 27 28 31 33 34 35 35 35 34 34 32 29 27 25 23 23 23 24 26 27 29 31 32 33 32 34 35 35 35 36 36 34 36 41 44 46 47 48 48 46 46 45 46 44 43 44 46 47 48 49 51 51 48 44 40 37 35 34 34 31 29 26 20 16 18 20 22 22 21 19 17 15 14 14 14 15
31 31 28 25 26 27 27 28 28 28 29 31 33 34 35 35 35 34 34 31 28 27 25 23 24 24 25 27 29 31 32 33 34 34 35 37 38 37 36 36 34 34 40 44 45 47 48 48 47 46 45 45 43 43 44 46 47 48 48 47 45 39 32 31 32 33 32 30 28 23 19 16 14 16 18 18 17 16 15 15 14 14 14 15 15
32 32 28 26 27 27 27 28 28 29 29 31 33 35 35 36 36 34 33 30 28 27 25 24 24 25 26 27 30 32 33 35 36 36 36 39 40 39 37 37 35 32 37 42 45 48 49 48 46 45 44 43 43 44 45 46 47 46 44 40 38 33 27 30 33 34 33 31 30 25 18 15 14 14 14 14 13 13 13 13 14 14 15 16 17
33 31 28 27 28 27 27 28 29 29 30 32 33 35 35 35 35 34 33 29 28 26 24 25 25 25 26 28 30 33 35 37 38 38 38 40 41 41 39 39 37 33 35 40 45 49 48 47 46 45 44 45 45 45 46 44 42 41 39 37 34 29 28 33 34 33 33 31 32 32 22 14 12 12 12 11 12 14 14 14 14 15 15 16 17
34 30 28 28 28 28 27 28 30 30 31 33 34 35 35 35 35 34 32 29 28 26 25 25 25 25 26 28 30 34 37 38 39 40 41 42 43 43 41 40 39 35 35 38 43 46 47 48 47 46 46 46 44 43 40 37 35 34 33 31 28 27 31 33 33 32 30 29 31 32 22 13 12 12 13 12 12 14 15 14 15 15 15 16 16
35 31 30 30 29 29 28 29 30 31 31 33 34 35 35 35 34 34 32 29 27 25 25 26 25 26 26 28 30 34 38 39 40 42 43 43 44 44 44 41 41 38 35 37 40 42 43 44 45 44 43 41 39 36 31 27 26 26 26 23 23 28 33 32 31 29 29 30 32 30 19 14 13 12 13 12 13 14 15 15 15 15 15 16 16
35 34 35 33 30 30 29 29 30 31 32 33 34 35 35 34 34 32 30 29 26 25 26 26 26 26 26 28 30 33 38 40 40 44 45 45 45 46 46 43 41 39 36 36 39 40 40 40 40 38 37 35 31 27 23 21 20 20 20 20 25 31 31 30 29 28 28 29 31 29 18 14 14 13 14 14 14 14 15 16 16 16 15 15 15
36 35 37 34 31 31 30 28 29 31 33 33 33 34 34 34 32 30 29 27 26 26 26 26 27 27 27 28 30 32 37 40 41 44 45 46 47 48 48 45 41 39 37 36 37 38 39 38 37 35 34 29 23 20 19 19 19 18 18 23 33 36 34 33 33 32 32 31 32 29 19 14 14 14 15 15 15 15 15 16 16 16 16 15 15
36 35 37 35 32 32 30 27 28 32 33 32 32 33 33 32 31 29 28 26 26 27 26 27 28 28 28 28 30 32 36 40 42 44 44 46 49 50 50 48 43 40 38 37 36 35 36 35 32 31 29 24 19 18 18 19 19 19 21 28 35 37 36 36 35 35 33 31 31 26 18 15 16 16 16 15 15 16 16 16 16 16 16 16 16
37 35 36 35 32 32 29 26 28 32 33 31 31 31 31 30 29 29 27 26 26 27 27 27 28 29 29 29 30 32 35 39 42 43 43 46 49 50 51 50 46 41 39 37 36 34 34 32 27 25 24 22 20 20 20 20 21 22 27 33 36 36 36 36 35 35 32 30 28 23 18 16 16 17 17 16 16 16 16 16 15 16 16 16 17
38 37 36 34 33 32 28 27 30 32 33 31 30 29 29 29 28 28 27 27 28 28 28 28 29 30 30 30 31 32 34 36 39 42 42 45 47 49 51 52 48 43 38 36 35 34 32 29 25 24 24 24 23 22 22 22 23 26 33 37 38 38 38 38 38 39 39 34 27 21 18 18 18 18 18 17 17 17 17 16 16 17 17 17 17
39 37 37 35 33 31 27 29 32 33 33 31 30 29 28 27 28 28 28 29 29 29 29 29 29 31 32 32 32 33 34 34 36 38 39 43 46 47 51 53 48 41 36 34 34 33 30 28 27 26 25 25 25 24 24 25 26 31 37 40 39 39 39 39 40 42 43 37 28 22 19 19 19 19 19 19 19 18 18 18 18 18 18 18 18
40 39 38 35 34 30 28 31 33 33 33 32 30 29 28 28 28 29 29 30 30 30 30 30 30 31 33 33 33 33 34 34 36 37 37 42 45 47 51 54 49 41 35 33 32 31 29 29 29 28 27 27 27 26 27 27 28 33 38 41 40 39 39 40 41 43 43 36 28 23 21 21 21 21 21 21 21 20 20 20 20 19 19 19 18
41 40 39 38 36 31 30 33 33 34 33 32 32 30 30 30 30 31 31 32 32 32 32 31 32 32 33 34 34 34 34 35 37 37 37 42 44 46 51 54 50 42 34 31 31 31 30 29 30 31 29 29 29 28 29 30 31 35 40 43 42 41 41 40 41 43 41 34 26 23 22 22 22 22 23 23 23 23 22 22 22 21 20 20 19
42 41 41 42 40 35 33 34 34 35 33 33 32 32 31 31 31 32 33 35 35 34 34 33 33 33 34 35 35 35 34 35 37 37 37 41 44 46 51 53 52 43 35 32 31 32 32 30 29 32 32 31 31 30 31 33 36 39 43 45 45 44 42 41 43 44 41 33 27 24 23 23 23 23 23 24 24 24 23 23 23 22 21 20 20
44 43 43 46 46 42 39 36 36 35 35 34 33 32 31 31 32 33 36 37 37 37 36 35 35 35 36 37 37 36 35 35 36 37 38 40 43 46 49 53 52 45 37 34 34 34 34 31 29 32 35 36 33 32 33 35 39 43 46 48 48 47 46 45 44 45 42 35 29 26 25 25 24 25 24 25 25 24 24 24 23 23 22 22 21
45 45 46 50 51 51 45 38 38 38 38 37 35 34 33 33 34 35 37 39 40 40 39 39 40 39 40 40 39 38 37 37 36 36 37 39 41 44 49 52 51 47 41 37 35 35 35 34 31 31 35 39 37 34 33 36 40 43 46 49 50 49 48 47 46 48 43 34 30 28 27 27 26 27 27 27 27 27 26 26 25 25 24 23 22
46 53 56 57 55 52 46 40 41 41 41 42 42 40 39 38 38 37 38 40 42 43 42 45 47 44 42 43 44 42 39 38 38 37 38 39 41 43 47 52 52 49 45 40 37 37 37 36 34 32 32 37 39 37 35 36 40 43 45 48 50 50 49 50 51 49 41 34 33 32 30 29 29 29 29 29 29 28 28 27 27 26 25 24 23
52 65 67 66 59 52 48 46 47 46 45 46 46 46 45 43 42 41 41 42 44 46 46 49 52 48 45 47 50 49 45 43 40 39 39 39 43 45 47 51 53 51 47 43 40 39 38 38 37 34 32 32 35 37 37 36 38 42 45 48 52 53 52 53 54 51 42 37 37 36 35 34 34 34 33 33 32 31 31 30 28 27 26 25 24
62 68 69 68 63 58 54 53 53 50 49 49 47 49 50 48 48 48 46 46 48 50 50 51 53 49 49 54 57 56 55 52 46 43 42 42 45 49 49 50 53 52 50 46 42 41 40 41 40 38 35 32 32 33 35 36 37 39 44 49 53 52 52 53 54 50 41 37 36 36 37 36 37 37 36 35 35 35 35 35 34 33 31 28 26
69 73 73 67 60 59 57 56 56 52 52 53 50 51 53 52 53 54 53 53 54 55 53 52 53 52 58 64 63 62 63 61 56 51 48 47 48 50 50 50 53 54 52 48 44 42 42 43 42 41 39 36 33 31 32 34 36 38 41 48 50 50 54 55 54 49 38 35 36 36 37 36 37 37 36 35 34 36 37 38 38 37 37 35 32
67 72 71 64 58 58 57 58 57 55 55 56 56 54 53 54 56 57 59 59 59 59 56 55 58 61 69 74 70 70 72 69 67 63 57 53 50 50 51 49 52 53 52 51 47 43 44 45 45 45 42 40 38 34 33 32 34 37 40 45 46 49 53 54 56 51 40 36 36 37 38 37 37 37 37 35 35 36 37 37 37 36 36 36 35
59 61 60 60 60 60 61 60 59 59 59 59 61 58 55 56 59 62 62 62 64 65 62 64 67 69 76 79 76 75 77 75 75 73 68 63 56 54 54 51 51 51 50 51 50 46 44 46 48 47 46 45 42 41 39 35 36 38 40 42 46 51 54 53 56 52 43 38 37 38 39 38 37 38 37 37 36 37 38 38 36 35 35 34 34
55 57 60 62 62 63 64 62 60 61 61 59 60 61 60 62 64 67 67 68 74 74 73 74 74 74 77 81 79 75 76 76 76 76 75 74 69 64 61 56 52 50 48 47 50 48 45 46 48 49 49 50 50 52 50 43 41 42 45 47 49 55 55 54 56 51 45 40 38 39 38 38 38 38 38 38 38 38 38 38 38 36 36 37 37
55 56 61 64 63 63 63 62 61 61 62 61 59 62 65 66 68 71 71 73 78 79 79 78 76 77 79 79 78 76 77 77 77 78 77 78 77 73 68 60 54 52 49 47 49 49 49 47 48 50 51 55 58 60 60 54 50 51 53 53 53 56 55 55 55 51 48 44 42 42 40 39 38 39 39 38 38 37 37 38 39 40 41 42 42
55 56 59 62 60 60 60 62 63 62 62 61 61 64 66 66 69 71 72 74 75 76 76 76 76 77 79 77 75 77 80 79 79 79 79 78 76 75 71 65 60 59 55 52 55 56 56 55 54 52 51 55 59 61 64 62 58 59 57 56 58 57 54 55 53 52 51 48 48 47 45 43 41 40 40 38 37 36 37 38 41 45 48 48 46
53 57 58 58 58 60 63 63 64 63 61 61 62 66 66 64 66 67 67 69 71 74 73 73 75 74 76 76 74 78 79 78 80 80 79 77 74 73 71 72 72 70 67 63 64 64 62 62 65 63 58 57 59 61 66 65 62 62 59 59 62 60 56 56 54 53 53 51 50 49 48 47 44 43 42 38 36 36 38 40 44 51 54 52 50
54 59 61 61 62 65 65 64 63 62 60 61 61 63 63 61 61 61 61 63 67 72 74 73 75 75 75 76 74 76 77 77 80 79 77 76 73 72 72 74 76 78 79 74 69 67 64 65 71 72 67 64 61 63 67 66 63 63 62 60 61 61 59 59 56 54 53 51 50 50 51 50 47 47 44 39 37 38 40 43 49 55 57 56 53
57 59 62 62 62 63 62 63 62 59 59 59 60 61 62 60 57 56 56 60 64 69 76 78 78 77 74 74 72 72 73 76 77 76 75 75 74 74 75 75 76 80 83 80 75 71 68 69 72 72 70 69 65 63 67 69 65 63 63 60 60 61 61 62 60 56 55 54 52 53 55 52 48 46 44 41 39 39 42 48 55 58 59 58 54
58 59 59 58 59 58 58 60 60 58 57 59 59 60 60 58 56 54 54 58 63 67 72 74 75 74 69 67 67 67 68 69 70 71 71 72 73 74 75 74 74 76 80 82 80 76 75 76 73 71 69 70 71 70 72 71 66 64 63 63 62 63 61 62 62 59 57 58 57 55 54 51 48 45 43 41 41 41 46 53 59 60 60 57 54
56 59 60 61 61 58 58 58 56 55 57 58 58 59 58 55 51 49 50 54 58 64 67 67 69 69 65 61 60 62 63 63 64 65 67 69 71 71 74 76 73 73 76 80 77 74 80 82 74 67 66 67 70 75 77 70 66 65 65 67 67 65 63 63 65 63 60 60 60 57 55 51 48 47 45 43 42 44 51 59 61 62 61 58 56
55 56 58 61 60 58 59 57 55 56 57 58 55 55 54 49 48 48 49 52 55 59 62 65 69 67 62 60 59 59 59 59 60 61 63 65 66 68 72 75 73 73 75 77 77 73 77 83 78 69 65 64 66 73 77 70 67 69 69 71 70 69 69 67 69 67 63 61 61 60 59 54 51 50 47 45 46 48 57 64 65 66 64 61 60
52 53 55 56 55 58 60 58 58 59 60 60 54 51 52 50 51 52 52 53 56 59 62 67 71 68 64 62 61 59 56 56 56 56 57 59 60 61 63 65 66 68 69 71 77 78 78 82 84 78 70 66 66 70 76 72 70 71 71 73 73 73 73 71 70 68 66 63 61 63 63 59 57 56 51 49 50 54 63 68 70 70 67 62 62
49 51 53 52 52 54 57 56 57 60 62 62 56 54 57 55 54 56 57 56 58 61 64 69 70 67 65 65 64 60 56 54 53 52 52 53 55 55 56 57 58 60 62 65 70 76 77 78 83 85 80 75 72 71 72 71 71 71 71 73 74 76 75 73 72 71 71 69 64 64 64 62 62 63 59 56 56 60 67 72 72 71 67 64 64
46 49 49 50 50 49 50 51 51 56 60 59 57 57 58 56 53 56 59 62 64 64 67 69 68 68 67 67 66 61 59 59 58 56 55 54 55 57 58 57 57 58 61 63 64 67 71 73 77 82 81 79 78 78 76 73 71 70 71 74 76 78 77 75 75 75 77 75 71 68 66 66 66 66 64 62 63 67 70 72 72 70 67 65 64
46 46 46 47 48 46 45 46 47 50 54 55 56 56 56 55 53 54 57 62 66 67 70 69 69 71 67 65 65 60 60 61 61 62 61 61 61 62 62 59 59 60 62 63 64 66 69 71 73 76 78 78 80 82 82 81 79 74 74 77 79 80 81 82 80 78 78 78 75 72 68 68 70 69 67 66 68 72 74 72 72 70 67 65 63
43 44 45 46 46 46 44 43 44 46 49 51 52 53 55 55 54 56 58 58 59 61 64 63 65 69 65 64 64 59 58 59 59 60 60 62 62 62 61 59 57 58 60 61 64 67 69 70 71 73 76 76 78 80 82 85 86 82 79 79 81 84 83 85 85 80 79 78 76 74 70 69 71 71 68 68 70 74 76 75 73 72 69 64 62
41 42 44 44 45 46 44 43 43 45 49 51 51 53 55 55 54 54 54 53 53 53 55 56 59 61 61 64 64 58 56 55 56 57 54 55 55 56 58 58 57 55 57 59 61 64 66 67 69 71 73 74 75 78 79 84 87 86 83 82 83 84 83 86 87 82 78 77 75 76 76 74 73 73 70 69 73 76 77 78 76 73 70 64 62
40 42 43 43 44 45 45 45 46 49 51 51 52 52 52 52 53 51 50 49 47 47 48 50 52 54 56 61 62 59 54 50 51 51 50 48 48 51 54 57 57 55 55 56 58 59 59 62 66 68 70 71 73 74 77 81 85 84 85 85 85 85 85 88 88 80 76 76 76 78 79 78 76 75 74 72 74 79 80 80 79 75 71 65 61
40 41 42 43 42 42 43 44 45 47 48 49 51 48 45 46 48 50 49 47 44 42 42 44 46 50 55 57 57 57 55 49 46 46 47 49 50 51 52 54 56 56 55 55 56 57 57 58 61 63 65 67 69 71 74 79 83 86 88 88 88 88 88 90 85 77 76 79 78 79 79 79 77 77 81 79 77 81 82 81 81 79 75 70 62
40 39 40 40 38 38 39 40 40 42 44 46 49 45 41 41 43 46 48 46 43 39 39 41 43 46 48 50 50 51 52 50 46 45 46 48 49 50 50 51 52 53 54 54 56 58 59 58 57 57 58 63 66 68 72 76 80 85 87 88 90 90 90 90 84 76 76 79 79 80 80 78 76 78 84 85 81 82 84 83 84 81 78 74 66
39 38 37 37 37 37 37 37 38 40 43 46 48 44 41 40 40 41 44 44 41 39 39 41 43 43 43 46 47 49 50 48 47 47 48 48 48 49 50 51 52 52 52 52 54 58 60 59 56 55 55 59 64 67 71 75 79 83 86 88 91 92 92 91 86 79 76 76 79 82 82 77 76 80 84 86 86 84 84 86 85 82 78 76 70
37 36 36 37 36 37 37 37 38 41 44 46 47 44 40 39 39 39 39 39 39 40 40 41 42 42 44 47 48 50 50 48 48 49 49 50 50 50 51 52 54 54 53 52 52 53 55 57 56 56 56 59 63 65 69 74 78 83 87 90 92 91 91 92 89 83 78 78 81 84 84 78 74 79 85 88 89 86 87 89 87 83 78 74 72
36 36 36 35 35 36 36 36 38 39 40 41 44 42 39 39 39 38 37 38 41 42 42 42 43 43 44 45 45 48 50 50 51 51 50 50 51 51 51 52 53 54 53 53 53 51 50 54 56 57 57 59 62 63 67 72 76 81 85 88 93 93 91 91 89 86 81 80 84 85 86 80 73 78 85 89 92 90 90 91 89 88 81 72 71
36 35 35 34 35 35 35 36 36 38 38 39 40 41 41 42 41 39 37 38 41 42 41 40 40 44 45 45 43 45 48 50 52 53 50 48 49 50 51 51 53 54 53 53 54 54 52 53 54 56 57 60 64 66 67 72 76 80 82 86 92 92 90 90 89 89 86 84 86 87 86 81 76 80 86 88 90 89 89 90 89 89 82 72 69
37 36 35 36 36 36 36 36 37 38 39 39 40 41 43 44 44 42 39 38 39 40 39 38 38 41 46 46 43 43 45 48 50 53 52 48 47 49 51 52 52 54 55 55 56 57 58 58 57 56 56 59 65 67 68 71 76 79 81 84 90 89 88 89 89 90 89 87 87 88 85 82 81 86 88 87 88 89 91 91 88 86 80 72 68
38 37 38 38 39 38 38 38 38 39 39 39 41 43 44 45 46 47 44 42 42 41 40 40 37 38 44 46 42 39 40 42 47 53 55 52 49 49 50 51 53 53 55 56 57 59 61 62 63 61 58 59 64 67 69 71 74 77 80 82 87 88 88 89 89 88 87 87 89 90 87 85 85 88 89 87 87 90 92 91 89 86 81 72 67
38 39 41 41 41 41 41 42 42 41 41 42 43 44 46 47 47 48 48 46 45 43 40 39 37 38 43 45 41 36 36 40 44 51 56 56 54 49 46 49 53 55 56 57 58 62 65 64 66 67 63 61 63 67 70 70 72 75 77 80 84 89 90 90 89 87 85 85 89 90 89 88 88 89 89 87 88 90 90 90 89 86 80 73 68
41 42 44 44 44 44 44 44 45 44 44 43 44 45 45 45 46 46 48 47 45 42 39 37 36 38 40 41 38 35 36 40 43 47 53 56 54 50 47 48 52 56 59 61 61 64 68 68 67 66 64 63 63 65 69 70 72 74 76 79 83 88 91 92 91 89 87 86 88 89 90 90 89 89 89 87 88 89 87 88 88 85 80 73 70
46 46 47 47 47 48 47 46 46 46 45 44 43 43 42 42 43 44 45 45 44 42 40 38 36 36 37 37 37 36 37 40 41 44 49 50 48 46 46 48 52 55 56 61 67 69 71 72 70 65 63 65 63 63 68 72 73 75 77 80 83 85 86 88 89 89 89 88 88 89 90 90 89 89 89 87 86 85 86 88 88 84 79 74 71